[[{"header":{"parameterUnit":"m.s-1","parameterCategory":1,"la1":30.2991,"la2":30.254,"lo1":-89.0895,"lo2":-89.0444,"dy":0.0017,"dx":0.0017,"nx":28,"ny":28,"refTime":"2024-08-09T09:00:00:Z","depth":0,"parameterNumber":2,"parameterNumberName":"U-component_of_WINDS"},"data":[0,0,0,0,0,0,0,0,0,0,0,0,0,0,0,0,0,0,0,0,0,0,0,0,0,0,0,0,0,0,0,0,0,0,0,0,0,0,0,0,0,0,0,0,0,0,0,0,0,0,0,0,0,0,0,0,0,0,-1.847,-1.8471,0,-1.8534,-1.8534,-1.8535,-1.8467,-1.8464,-1.8461,-1.8459,-1.8525,-1.8529,-1.8533,0,0,0,0,0,0,0,0,0,0,0,0,0,-1.8289,-1.8293,-1.847,-1.8471,-1.8471,-1.8534,-1.8534,-1.8535,-1.8467,-1.8464,-1.8461,-1.8458,-1.8524,-1.8529,-1.8534,0,0,0,0,0,0,0,0,0,0,0,0,0,-1.8362,-1.8294,-1.847,-1.8445,-1.8443,-1.8533,-1.8535,-1.8536,-1.8468,-1.8464,-1.846,-1.8456,-1.8522,-1.8528,-1.8534,-1.8652,0,0,-1.8554,-1.8556,0,0,0,0,0,0,0,0,-1.8358,-1.8368,-1.8448,-1.8447,-1.8445,-1.8488,-1.8495,-1.8575,-1.8469,-1.8459,-1.8459,-1.8454,-1.8516,-1.8523,-1.8543,-1.8655,-1.8658,-1.8554,-1.8558,-1.8561,-1.8563,0,0,0,0,0,0,0,-1.8353,-1.8365,-1.8495,-1.8449,-1.8447,-1.8431,-1.8437,-1.851,-1.8509,-1.8459,-1.8454,-1.8463,-1.8515,-1.8537,-1.8544,-1.8659,-1.8554,-1.856,-1.8564,-1.8566,-1.8871,-1.8875,0,0,0,0,0,0,-1.835,-1.8361,-1.8493,-1.8497,-1.8391,-1.8437,-1.8444,-1.8478,-1.8508,-1.8508,-1.8466,-1.8459,-1.8528,-1.8537,-1.8546,-1.8687,-1.8561,-1.8567,-1.857,-1.8867,-1.8872,-1.8877,0,0,0,0,0,0,-1.8347,-1.8363,-1.849,-1.8428,-1.8443,-1.8444,-1.8484,-1.8482,-1.8504,-1.8513,-1.8512,-1.849,-1.8526,-1.8537,-1.8626,-1.8688,-1.857,-1.8575,-1.8862,-1.8869,-1.8875,-1.8969,0,0,0,0,0,0,-1.8342,-1.8362,-1.8407,-1.843,-1.8447,-1.857,-1.8488,-1.8486,-1.8515,-1.8507,-1.8535,-1.8536,-1.8524,-1.8617,-1.8633,-1.8695,-1.858,-1.8856,-1.8865,-1.8873,-1.8961,-1.8978,-1.8993,0,0,0,0,0,-1.8336,-1.8431,-1.841,-1.8426,-1.8503,-1.8574,-1.8583,-1.8567,-1.8521,-1.8566,-1.8571,-1.8535,-1.8679,-1.8627,-1.8644,-1.8709,-1.8853,-1.8863,-1.8872,-1.8953,-1.8975,-1.8993,0,0,0,0,0,0,-1.8416,-1.8434,-1.841,-1.8515,-1.8544,-1.8562,-1.8619,-1.859,-1.8633,-1.8623,-1.8601,-1.8608,-1.8703,-1.8714,-1.8657,-1.8824,-1.8758,-1.8771,-1.8814,-1.8834,-1.885,-1.8847,-1.8585,0,0,0,0,0,-1.8446,-1.8502,-1.8514,-1.8606,-1.8621,-1.8618,-1.8648,-1.8633,-1.8661,-1.8673,-1.8685,-1.8714,-1.8765,-1.88,-1.8848,-1.8961,-1.8966,-1.9014,-1.903,-1.9043,-1.9056,-1.9117,-1.9139,-1.8909,-1.8909,-1.8909,0,0,-1.8509,-1.8525,-1.8562,-1.8623,-1.8643,-1.8702,-1.8628,-1.8693,-1.8737,-1.8683,-1.8768,-1.8778,-1.8808,-1.891,-1.8955,-1.8923,-1.912,-1.9056,-1.9066,-1.9072,-1.9129,-1.9151,-1.917,-1.8915,-1.8914,-1.8913,0,0,-1.8653,-1.8671,-1.875,-1.8771,-1.8802,-1.8799,-1.8818,-1.8841,-1.8845,-1.893,-1.889,-1.8941,-1.9031,-1.9055,-1.9078,-1.9231,-1.9199,-1.9247,-1.9333,-1.9393,-1.9411,-1.9427,-1.9482,-1.9502,-1.9259,-1.9259,-1.9259,0,-1.8728,-1.8815,-1.8794,-1.8862,-1.889,-1.8843,-1.8923,-1.8945,-1.899,-1.9011,-1.8973,-1.9084,-1.9101,-1.9208,-1.9245,-1.9265,-1.9287,-1.9245,-1.941,-1.9425,-1.944,-1.9493,-1.9514,-1.9265,-1.9264,-1.9264,-1.9263,0,-1.8905,-1.8966,-1.9026,-1.9071,-1.9105,-1.9179,-1.917,-1.9207,-1.9188,-1.9189,-1.9276,-1.9295,-1.9346,-1.937,-1.9352,-1.9474,-1.9453,-1.9413,-1.9346,-1.9468,-1.9517,-1.9537,-1.9273,-1.9271,-1.9269,-1.9268,0,0,-1.9105,-1.9136,-1.9159,-1.9179,-1.9209,-1.9255,-1.9326,-1.9376,-1.9409,-1.9441,-1.9501,-1.9577,-1.954,-1.9567,-1.9552,-1.9604,-1.9725,-1.9557,-1.9557,-1.9589,-1.9862,-1.9893,-1.9917,-1.9703,-1.9707,-1.971,-1.9859,0,-1.9251,-1.9375,-1.9358,-1.9477,-1.9534,-1.9489,-1.9551,-1.9576,-1.9579,-1.9626,-1.9628,-1.9683,-1.9629,-1.9645,-1.9695,-1.97,-1.978,-1.9688,-1.9759,-1.9762,-1.9755,-1.9943,-1.9977,-2.0117,-1.9878,-1.9882,-1.9884,0,-1.9439,-1.9478,-1.9604,-1.9625,-1.9648,-1.9704,-1.9748,-1.9794,-1.9822,-1.9819,-1.9849,-1.9824,-1.9896,-1.9826,-1.9924,-1.9863,-1.989,-1.9897,-1.9902,-1.991,-1.9832,-1.9957,-2.0162,-2.0184,-1.9914,-1.9912,-1.9909,0,-1.9574,-1.9658,-1.9744,-1.9762,-1.9788,-1.9829,-1.9842,-1.9865,-1.9896,-1.9935,-1.9955,-2.0001,-2.0026,-2.0063,-2.0051,-2.0001,-2.0152,-2.0081,-2.0153,-2.0154,-2.0189,-2.0187,-2.0403,-2.0204,-2.0203,-2.0203,-2.0202,0,-1.9741,-1.982,-1.9805,-1.9858,-1.9944,-1.9923,-2.001,-2.0017,-2.0038,-2.0092,-2.0055,-2.0106,-2.0086,-2.0136,-2.0127,-2.0211,-2.0222,-2.0223,-2.022,-2.0228,-2.0228,-2.0247,-2.0238,-2.0208,-2.0207,-2.0206,-2.0205,0,-1.9908,-1.9901,-1.9991,-2.0009,-2.0015,-2.0078,-2.0093,-2.0143,-2.0141,-2.021,-2.0224,-2.0222,-2.0279,-2.027,-2.0333,-2.0327,-2.0432,-2.0415,-2.0423,-2.042,-2.0493,-2.0487,-2.073,-2.0761,-2.054,-2.0542,-2.0544,0,-2.0016,-2.0075,-2.0099,-2.0132,-2.0148,-2.0202,-2.0233,-2.0214,-2.0248,-2.0284,-2.0329,-2.0383,-2.0425,-2.0517,-2.0522,-2.0569,-2.0555,-2.0637,-2.0563,-2.0568,-2.0559,-2.0556,-2.0563,-2.0653,-2.0655,-2.0657,-2.0659,0,-2.0209,-2.0202,-2.0249,-2.0294,-2.0332,-2.0367,-2.0398,-2.0428,-2.0411,-2.0451,-2.0509,-2.0541,-2.0605,-2.0659,-2.0704,-2.0717,-2.0686,-2.0682,-2.0702,-2.0711,-2.0714,-2.0715,-2.0465,-2.0677,-2.0675,-2.0674,-2.0673,-2.0672,-2.0351,-2.0402,-2.0426,-2.0479,-2.05,-2.053,-2.0578,-2.0582,-2.063,-2.0681,-2.0666,-2.0732,-2.0757,-2.0813,-2.0831,-2.0882,-2.0852,-2.088,-2.0888,-2.0895,-2.0905,-2.0704,-2.089,-2.0889,-2.0889,-2.0888,-2.0888,0,-2.0543,-2.0556,-2.0605,-2.065,-2.0692,-2.0658,-2.069,-2.0727,-2.0786,-2.0812,-2.0853,-2.0919,-2.0971,-2.0979,-2.1028,-2.1067,-2.1054,-2.1081,-2.1079,-2.1083,-2.0928,-2.0907,-2.109,-2.109,-2.109,-2.109,-2.109,-2.109,-2.0649,-2.0733,-2.0729,-2.0824,-2.0836,-2.0901,-2.0922,-2.095,-2.097,-2.1046,-2.1088,-2.1093,-2.1112,-2.1161,-2.1207,-2.1208,-2.1229,-2.1261,-2.1257,-2.1113,-2.1093,-2.1074,-2.1054,-2.1265,-2.1266,-2.1407,-2.1408,-2.1409]},{"header":{"parameterUnit":"m.s-1","parameterCategory":1,"la1":30.2991,"la2":30.254,"lo1":-89.0895,"lo2":-89.0444,"dy":0.0017,"dx":0.0017,"nx":28,"ny":28,"refTime":"2024-08-09T09:00:00:Z","depth":0,"parameterNumber":3,"parameterNumberName":"V-component_of_WINDS"},"data":[0,0,0,0,0,0,0,0,0,0,0,0,0,0,0,0,0,0,0,0,0,0,0,0,0,0,0,0,0,0,0,0,0,0,0,0,0,0,0,0,0,0,0,0,0,0,0,0,0,0,0,0,0,0,0,0,0,0,-3.6603,-3.6603,0,-3.6657,-3.6657,-3.6658,-3.6607,-3.6605,-3.6603,-3.6601,-3.6652,-3.6655,-3.6659,0,0,0,0,0,0,0,0,0,0,0,0,0,-3.6451,-3.6454,-3.6603,-3.6603,-3.6604,-3.6657,-3.6657,-3.6658,-3.6607,-3.6605,-3.6602,-3.66,-3.6651,-3.6655,-3.6659,0,0,0,0,0,0,0,0,0,0,0,0,0,-3.6512,-3.6455,-3.6603,-3.6585,-3.6584,-3.6656,-3.6657,-3.6658,-3.6608,-3.6604,-3.6601,-3.6599,-3.665,-3.6655,-3.6659,-3.6751,0,0,-3.6674,-3.6676,0,0,0,0,0,0,0,0,-3.6509,-3.6518,-3.6587,-3.6586,-3.6585,-3.6622,-3.6623,-3.6689,-3.6608,-3.6599,-3.6601,-3.6597,-3.6644,-3.6649,-3.6666,-3.6753,-3.6755,-3.6675,-3.6678,-3.668,-3.6681,0,0,0,0,0,0,0,-3.6505,-3.6515,-3.6624,-3.6588,-3.6587,-3.6573,-3.6578,-3.6635,-3.6638,-3.6599,-3.6596,-3.6603,-3.6643,-3.6662,-3.6667,-3.6756,-3.6675,-3.6679,-3.6682,-3.6684,-3.6919,-3.6922,0,0,0,0,0,0,-3.6503,-3.6512,-3.6622,-3.6625,-3.6539,-3.6578,-3.6584,-3.6613,-3.6637,-3.6638,-3.6605,-3.66,-3.6655,-3.6661,-3.6669,-3.6776,-3.668,-3.6684,-3.6687,-3.6915,-3.6919,-3.6923,0,0,0,0,0,0,-3.65,-3.6513,-3.662,-3.6568,-3.658,-3.6584,-3.6617,-3.6616,-3.6634,-3.6642,-3.6642,-3.6624,-3.6653,-3.6662,-3.673,-3.6777,-3.6687,-3.6691,-3.6912,-3.6917,-3.6921,-3.6992,0,0,0,0,0,0,-3.6496,-3.6513,-3.6548,-3.6569,-3.6583,-3.6683,-3.662,-3.6619,-3.6643,-3.6637,-3.6659,-3.666,-3.6651,-3.6723,-3.6735,-3.6782,-3.6695,-3.6907,-3.6914,-3.692,-3.6986,-3.6999,-3.7011,0,0,0,0,0,-3.6491,-3.6566,-3.655,-3.6564,-3.6629,-3.6685,-3.6693,-3.6683,-3.6647,-3.6682,-3.6687,-3.6659,-3.677,-3.6731,-3.6744,-3.6793,-3.6904,-3.6912,-3.6919,-3.698,-3.6997,-3.701,0,0,0,0,0,0,-3.6549,-3.6568,-3.6551,-3.6636,-3.666,-3.6677,-3.6721,-3.67,-3.6734,-3.6726,-3.671,-3.6716,-3.6789,-3.6797,-3.6753,-3.6882,-3.6831,-3.6842,-3.6873,-3.6889,-3.6901,-3.6897,-3.6699,0,0,0,0,0,-3.6572,-3.6618,-3.6632,-3.6705,-3.6718,-3.6717,-3.6742,-3.6732,-3.6755,-3.6764,-3.6774,-3.6797,-3.6837,-3.6863,-3.69,-3.6987,-3.699,-3.7027,-3.7039,-3.7049,-3.7058,-3.7104,-3.712,-3.6947,-3.6947,-3.6947,0,0,-3.6619,-3.6635,-3.6665,-3.6717,-3.6734,-3.6781,-3.6726,-3.6778,-3.6812,-3.6772,-3.6838,-3.6846,-3.687,-3.6948,-3.6982,-3.6957,-3.7107,-3.7059,-3.7067,-3.707,-3.7113,-3.7129,-3.7144,-3.6952,-3.6952,-3.6951,0,0,-3.673,-3.6747,-3.6809,-3.6828,-3.6855,-3.6854,-3.6869,-3.689,-3.6894,-3.696,-3.693,-3.697,-3.7039,-3.7057,-3.7076,-3.7192,-3.7167,-3.7204,-3.7269,-3.7313,-3.7327,-3.7339,-3.7379,-3.7394,-3.7213,-3.7214,-3.7214,0,-3.6785,-3.6855,-3.6844,-3.6898,-3.6921,-3.6887,-3.695,-3.6968,-3.7005,-3.7021,-3.6992,-3.7078,-3.7092,-3.7174,-3.7202,-3.7218,-3.7234,-3.7202,-3.7326,-3.7338,-3.7349,-3.7387,-3.7403,-3.7218,-3.7217,-3.7217,-3.7217,0,-3.6921,-3.697,-3.7017,-3.7056,-3.7083,-3.7141,-3.7137,-3.7167,-3.7154,-3.7155,-3.7222,-3.7238,-3.7277,-3.7296,-3.7283,-3.7375,-3.7358,-3.7329,-3.7277,-3.737,-3.7405,-3.742,-3.7224,-3.7223,-3.7221,-3.722,0,0,-3.707,-3.7101,-3.7118,-3.7135,-3.7162,-3.7199,-3.7254,-3.7294,-3.7319,-3.7346,-3.7391,-3.745,-3.7423,-3.7443,-3.7432,-3.7472,-3.7562,-3.7436,-3.7437,-3.7458,-3.7662,-3.7685,-3.7702,-3.7545,-3.7548,-3.755,-3.766,0,-3.718,-3.7279,-3.7269,-3.7362,-3.7406,-3.7375,-3.7423,-3.7444,-3.7447,-3.7484,-3.7487,-3.7529,-3.749,-3.7502,-3.7539,-3.7543,-3.7602,-3.7535,-3.7586,-3.7588,-3.7581,-3.7721,-3.7745,-3.7848,-3.7674,-3.7677,-3.7678,0,-3.7323,-3.7356,-3.7453,-3.7473,-3.7491,-3.7535,-3.757,-3.7606,-3.7628,-3.7628,-3.7651,-3.7633,-3.7687,-3.7636,-3.7709,-3.7664,-3.7684,-3.7689,-3.7692,-3.7696,-3.7639,-3.7728,-3.788,-3.7896,-3.77,-3.7699,-3.7697,0,-3.7421,-3.7489,-3.7556,-3.7571,-3.7596,-3.7627,-3.7639,-3.7658,-3.7682,-3.7713,-3.7728,-3.7763,-3.7783,-3.781,-3.7802,-3.7765,-3.7877,-3.7825,-3.7877,-3.7877,-3.7901,-3.79,-3.8059,-3.7916,-3.7915,-3.7915,-3.7915,0,-3.7545,-3.7605,-3.76,-3.7641,-3.7707,-3.7696,-3.7761,-3.7768,-3.7786,-3.7827,-3.7802,-3.784,-3.7827,-3.7864,-3.7858,-3.7919,-3.7928,-3.7928,-3.7926,-3.793,-3.793,-3.7943,-3.7936,-3.7919,-3.7918,-3.7918,-3.7917,0,-3.7665,-3.7664,-3.7735,-3.7753,-3.7759,-3.7807,-3.7821,-3.7859,-3.786,-3.7912,-3.7923,-3.7924,-3.7967,-3.7961,-3.8009,-3.8004,-3.808,-3.8069,-3.8073,-3.8071,-3.8123,-3.8118,-3.8295,-3.8317,-3.816,-3.8162,-3.8163,0,-3.7745,-3.779,-3.7814,-3.784,-3.7854,-3.7896,-3.7921,-3.791,-3.7937,-3.7965,-3.7999,-3.804,-3.8072,-3.8141,-3.8145,-3.8181,-3.817,-3.823,-3.8175,-3.8178,-3.817,-3.8167,-3.8171,-3.824,-3.8242,-3.8243,-3.8245,0,-3.7885,-3.7882,-3.7919,-3.7957,-3.7987,-3.8015,-3.8041,-3.8063,-3.8055,-3.8086,-3.813,-3.8154,-3.8203,-3.8243,-3.8276,-3.8286,-3.8264,-3.8262,-3.8275,-3.828,-3.8281,-3.828,-3.8102,-3.8258,-3.8256,-3.8255,-3.8255,-3.8254,-3.7987,-3.8026,-3.8048,-3.809,-3.8108,-3.8133,-3.8169,-3.8175,-3.8212,-3.8251,-3.8242,-3.8291,-3.8311,-3.8354,-3.8368,-3.8405,-3.8383,-3.8403,-3.8408,-3.8413,-3.8419,-3.8275,-3.8411,-3.8411,-3.841,-3.841,-3.841,0,-3.8125,-3.8138,-3.8177,-3.8214,-3.8247,-3.8224,-3.8251,-3.8279,-3.8323,-3.8344,-3.8376,-3.8426,-3.8465,-3.8472,-3.8508,-3.8537,-3.8527,-3.8546,-3.8544,-3.8546,-3.8437,-3.8421,-3.8553,-3.8553,-3.8553,-3.8553,-3.8553,-3.8553,-3.8201,-3.8266,-3.8265,-3.8338,-3.835,-3.8399,-3.8416,-3.8438,-3.8455,-3.8512,-3.8545,-3.8549,-3.8564,-3.8601,-3.8635,-3.8636,-3.865,-3.8674,-3.8671,-3.8568,-3.8554,-3.854,-3.8525,-3.8677,-3.8677,-3.8776,-3.8777,-3.8778]}]]